Home > Time Zones > World Clock > Weather > U.S.A. > Waco > Past weeks

Flag for U.S.A. Weather past 2 weeks in Waco, Texas, U.S.A.

Now
62 °F

Clear.


Feels Like: 62 °F
Forecast: 57 / 82 °F
Wind: No wind

Location: Waco Regional Airport

Current Time: Oct 20, 2014 at 11:42:21 PM

Latest Report: Oct 20, 2014 at 10:51 PM


Visibility: 10 mi

Pressure: 30.04 "Hg

Humidity: 86%

Dew point: 58 °F

Location of WacoLocation

Historic Weather in Waco — Graph

°F

Waco temperature yesterday

Maximum temperature yesterday: 78 °F (at 3:51 PM)
Minimum temperature yesterday: 63 °F (at 3:51 AM)
Average temperature yesterday: 69 °F

Past Weeks' High & Low Weather Summary

 TemperatureHumidityPressure
High95 °F (Oct 7, 2:51 PM)100% (Oct 13, 5:51 AM)30.14 "Hg (Oct 13, 5:51 AM)
Low48 °F (Oct 15, 6:51 AM)22% (Oct 14, 5:51 PM)29.60 "Hg (Oct 13, 3:51 AM)
Average71 °F69%29.94 "Hg
* Reported Oct 5 9:51 PM — Oct 20 9:51 PM, Waco, Weather by CustomWeather, © 2014

Note: Actual official high and low records may vary slightly from our data, if they occured in-between our weather recording intervals... More about our weather records

Advertising

Waco weather history for previous 24 hours

 ConditionsComfort  
Time TempWeatherWind HumidityBarometerVisibility
9:51 PM
Oct 20
67 °FClear.5 mph76%30.03 "Hg10 mi
8:51 PM68 °FClear.7 mph76%30.02 "Hg10 mi
7:51 PM71 °FClear.6 mph66%30.01 "Hg10 mi
6:51 PM73 °FSunny.6 mph64%29.99 "Hg10 mi
5:51 PM79 °FSunny.5 mph48%29.99 "Hg10 mi
4:51 PM80 °FSunny.6 mph47%29.98 "Hg10 mi
3:51 PM81 °FSunny.3 mph47%30.00 "Hg10 mi
2:51 PM82 °FBroken clouds.6 mph48%30.01 "Hg10 mi
1:51 PM79 °FSunny.No wind54%30.03 "Hg10 mi
12:51 PM77 °FPassing clouds.3 mph62%30.06 "Hg10 mi
11:51 AM75 °FSunny.No wind66%30.08 "Hg10 mi
10:51 AM71 °FSunny.3 mph73%30.09 "Hg10 mi
9:51 AM66 °FSunny.No wind81%30.09 "Hg10 mi
8:51 AM61 °FSunny.No wind93%30.07 "Hg7 mi
7:51 AM56 °FFog.3 mph97%30.06 "Hg6 mi
6:51 AM56 °FClear.No wind97%30.05 "Hg7 mi
5:51 AM57 °FClear.5 mph93%30.04 "Hg8 mi
4:51 AM58 °FClear.No wind93%30.03 "Hg10 mi
3:51 AM57 °FClear.No wind96%30.03 "Hg10 mi
2:51 AM59 °FClear.No wind93%30.03 "Hg10 mi
1:51 AM59 °FClear.No wind93%30.03 "Hg10 mi
12:51 AM61 °FClear.No wind90%30.03 "Hg10 mi
11:51 PM
Oct 19
64 °FClear.3 mph84%30.03 "Hg10 mi
Weather by CustomWeather, © 2014

See weather overviewHow to use our weather pages